Time,TemperatureF,DewpointF,PressureIn,WindDirection,WindDirectionDegrees,WindSpeedMPH,WindSpeedGustMPH,Humidity,HourlyPrecipIn,Conditions,Clouds,dailyrainin,SoftwareType,DateUTC
2013-03-28 00:02:00,36.0,16.0,-100.00,SW,225,0.0,2.0,43,0.00,,,0.00,,2013-03-28 00:02:00,
2013-03-28 00:12:00,36.0,16.0,-100.00,WSW,240,0.0,1.0,43,0.00,,,0.00,,2013-03-28 00:12:00,
2013-03-28 00:22:00,35.0,16.0,-100.00,WSW,245,1.0,1.0,45,0.00,,,0.00,,2013-03-28 00:22:00,
2013-03-28 00:32:00,33.0,14.0,-100.00,SW,225,1.0,2.0,45,0.00,,,0.00,,2013-03-28 00:32:00,
2013-03-28 00:42:00,33.0,14.0,-100.00,SSE,165,0.0,1.0,46,0.00,,,0.00,,2013-03-28 00:42:00,
2013-03-28 00:52:00,31.0,14.0,-100.00,East,80,0.0,1.0,48,0.00,,,0.00,,2013-03-28 00:52:00,
2013-03-28 01:02:00,31.0,14.0,-100.00,ESE,110,1.0,2.0,49,0.00,,,0.00,,2013-03-28 01:02:00,
2013-03-28 01:12:00,32.0,16.0,-100.00,South,170,0.0,2.0,49,0.00,,,0.00,,2013-03-28 01:12:00,
2013-03-28 01:22:00,31.0,14.0,-100.00,SSW,195,0.0,1.0,49,0.00,,,0.00,,2013-03-28 01:22:00,
2013-03-28 01:32:00,31.0,14.0,-100.00,SW,215,0.0,1.0,50,0.00,,,0.00,,2013-03-28 01:32:00,
2013-03-28 01:42:00,31.0,14.0,-100.00,SW,230,1.0,1.0,50,0.00,,,0.00,,2013-03-28 01:42:00,
2013-03-28 01:52:00,30.0,16.0,-100.00,WSW,245,1.0,2.0,52,0.00,,,0.00,,2013-03-28 01:52:00,
2013-03-28 02:02:00,30.0,16.0,-100.00,WSW,240,1.0,2.0,53,0.00,,,0.00,,2013-03-28 02:02:00,
2013-03-28 02:12:00,30.0,16.0,-100.00,WSW,240,1.0,2.0,54,0.00,,,0.00,,2013-03-28 02:12:00,
2013-03-28 02:22:00,30.0,16.0,-100.00,WSW,240,1.0,2.0,55,0.00,,,0.00,,2013-03-28 02:22:00,
2013-03-28 02:32:00,30.0,16.0,-100.00,WSW,255,2.0,2.0,55,0.00,,,0.00,,2013-03-28 02:32:00,
2013-03-28 02:42:00,30.0,16.0,-100.00,WSW,255,2.0,2.0,55,0.00,,,0.00,,2013-03-28 02:42:00,
2013-03-28 02:52:00,30.0,16.0,-100.00,WSW,255,2.0,2.0,55,0.00,,,0.00,,2013-03-28 02:52:00,
2013-03-28 03:02:00,30.0,16.0,-100.00,West,275,0.0,2.0,54,0.00,,,0.00,,2013-03-28 03:02:00,
2013-03-28 03:12:00,30.0,16.0,-100.00,WNW,295,0.0,1.0,55,0.00,,,0.00,,2013-03-28 03:12:00,
2013-03-28 03:22:00,29.0,14.0,-100.00,NW,325,1.0,2.0,55,0.00,,,0.00,,2013-03-28 03:22:00,
2013-03-28 03:33:00,29.0,16.0,-100.00,NNW,345,1.0,1.0,56,0.00,,,0.00,,2013-03-28 03:33:00,
2013-03-28 03:42:00,26.0,14.0,-100.00,NNW,345,2.0,2.0,57,0.00,,,0.00,,2013-03-28 03:42:00,
2013-03-28 03:52:00,26.0,14.0,-100.00,North,355,2.0,2.0,59,0.00,,,0.00,,2013-03-28 03:52:00,
2013-03-28 04:02:00,25.0,14.0,-100.00,North,10,1.0,2.0,61,0.00,,,0.00,,2013-03-28 04:02:00,
2013-03-28 04:12:00,25.0,14.0,-100.00,NNE,15,1.0,1.0,62,0.00,,,0.00,,2013-03-28 04:12:00,
2013-03-28 04:22:00,25.0,16.0,-100.00,NE,45,1.0,2.0,65,0.00,,,0.00,,2013-03-28 04:22:00,
2013-03-28 04:32:00,25.0,16.0,-100.00,NE,40,1.0,1.0,65,0.00,,,0.00,,2013-03-28 04:32:00,
2013-03-28 04:42:00,26.0,16.0,-100.00,NNE,20,1.0,2.0,66,0.00,,,0.00,,2013-03-28 04:42:00,
2013-03-28 04:52:00,27.0,18.0,-100.00,NNE,15,1.0,2.0,67,0.00,,,0.00,,2013-03-28 04:52:00,
2013-03-28 05:02:00,27.0,18.0,-100.00,NNE,15,1.0,1.0,66,0.00,,,0.00,,2013-03-28 05:02:00,
2013-03-28 05:12:00,27.0,16.0,-100.00,NE,40,1.0,1.0,65,0.00,,,0.00,,2013-03-28 05:12:00,
2013-03-28 05:22:00,25.0,16.0,-100.00,NE,40,0.0,0.0,65,0.00,,,0.00,,2013-03-28 05:22:00,
2013-03-28 05:32:00,27.0,18.0,-100.00,NW,315,0.0,0.0,64,0.00,,,0.00,,2013-03-28 05:32:00,
2013-03-28 05:42:00,27.0,16.0,-100.00,WNW,290,0.0,1.0,63,0.00,,,0.00,,2013-03-28 05:42:00,
2013-03-28 05:52:00,27.0,16.0,-100.00,NW,320,0.0,0.0,63,0.00,,,0.00,,2013-03-28 05:52:00,
2013-03-28 06:02:00,26.0,16.0,-100.00,NW,310,0.0,0.0,63,0.00,,,0.00,,2013-03-28 06:02:00,
2013-03-28 06:12:00,26.0,16.0,-100.00,WSW,250,0.0,0.0,63,0.00,,,0.00,,2013-03-28 06:12:00,
2013-03-28 06:22:00,29.0,16.0,-100.00,SW,220,1.0,1.0,60,0.00,,,0.00,,2013-03-28 06:22:00,
2013-03-28 06:32:00,29.0,16.0,-100.00,WSW,250,2.0,2.0,57,0.00,,,0.00,,2013-03-28 06:32:00,
2013-03-28 06:42:00,29.0,16.0,-100.00,WSW,240,1.0,2.0,56,0.00,,,0.00,,2013-03-28 06:42:00,
2013-03-28 06:52:00,29.0,16.0,-100.00,SW,215,2.0,2.0,56,0.00,,,0.00,,2013-03-28 06:52:00,
2013-03-28 07:02:00,29.0,16.0,-100.00,WSW,245,2.0,2.0,56,0.00,,,0.00,,2013-03-28 07:02:00,
2013-03-28 07:12:00,29.0,16.0,-100.00,WSW,245,2.0,2.0,55,0.00,,,0.00,,2013-03-28 07:12:00,
2013-03-28 07:22:00,29.0,14.0,-100.00,SW,230,2.0,2.0,55,0.00,,,0.00,,2013-03-28 07:22:00,
2013-03-28 07:32:00,29.0,14.0,-100.00,SW,230,1.0,2.0,55,0.00,,,0.00,,2013-03-28 07:32:00,
2013-03-28 07:42:00,29.0,14.0,-100.00,SW,235,2.0,2.0,55,0.00,,,0.00,,2013-03-28 07:42:00,
2013-03-28 07:52:00,28.0,14.0,-100.00,WSW,240,2.0,2.0,55,0.00,,,0.00,,2013-03-28 07:52:00,
2013-03-28 08:02:00,28.0,14.0,-100.00,SW,230,2.0,3.0,56,0.00,,,0.00,,2013-03-28 08:02:00,
2013-03-28 08:12:00,27.0,14.0,-100.00,SW,230,2.0,2.0,57,0.00,,,0.00,,2013-03-28 08:12:00,
2013-03-28 08:21:00,28.0,14.0,-100.00,WSW,245,3.0,3.0,57,0.00,,,0.00,,2013-03-28 08:21:00,
2013-03-28 08:32:00,27.0,14.0,-100.00,SW,235,3.0,3.0,57,0.00,,,0.00,,2013-03-28 08:32:00,
2013-03-28 08:42:00,27.0,14.0,-100.00,WSW,245,2.0,2.0,58,0.00,,,0.00,,2013-03-28 08:42:00,
2013-03-28 08:52:00,28.0,16.0,-100.00,WSW,240,3.0,4.0,57,0.00,,,0.00,,2013-03-28 08:52:00,
2013-03-28 09:01:00,27.0,14.0,-100.00,SW,225,3.0,3.0,58,0.00,,,0.00,,2013-03-28 09:01:00,
2013-03-28 09:12:00,26.0,14.0,-100.00,WSW,240,4.0,4.0,59,0.00,,,0.00,,2013-03-28 09:12:00,
2013-03-28 09:22:00,26.0,14.0,-100.00,SW,230,3.0,4.0,59,0.00,,,0.00,,2013-03-28 09:22:00,
2013-03-28 09:32:00,25.0,14.0,-100.00,SW,220,4.0,4.0,61,0.00,,,0.00,,2013-03-28 09:32:00,
2013-03-28 09:42:00,25.0,14.0,-100.00,SW,215,4.0,4.0,62,0.00,,,0.00,,2013-03-28 09:42:00,
2013-03-28 09:52:00,24.0,14.0,-100.00,SSW,210,3.0,4.0,63,0.00,,,0.00,,2013-03-28 09:52:00,
2013-03-28 10:03:00,23.0,14.0,-100.00,SSW,205,4.0,4.0,65,0.00,,,0.00,,2013-03-28 10:03:00,
2013-03-28 10:12:00,23.0,14.0,-100.00,SSW,205,4.0,4.0,66,0.00,,,0.00,,2013-03-28 10:12:00,
2013-03-28 10:22:00,23.0,14.0,-100.00,SSW,210,4.0,4.0,68,0.00,,,0.00,,2013-03-28 10:22:00,
2013-03-28 10:33:00,23.0,14.0,-100.00,SSW,205,3.0,4.0,69,0.00,,,0.00,,2013-03-28 10:33:00,
2013-03-28 10:42:00,24.0,16.0,-100.00,South,190,4.0,4.0,69,0.00,,,0.00,,2013-03-28 10:42:00,
2013-03-28 10:52:00,25.0,16.0,-100.00,South,185,5.0,6.0,70,0.00,,,0.00,,2013-03-28 10:52:00,
2013-03-28 11:02:00,25.0,18.0,-100.00,South,180,2.0,6.0,69,0.00,,,0.00,,2013-03-28 11:02:00,
2013-03-28 11:12:00,26.0,18.0,-100.00,South,175,3.0,4.0,71,0.00,,,0.00,,2013-03-28 11:12:00,
2013-03-28 11:22:00,26.0,18.0,-100.00,South,190,2.0,4.0,72,0.00,,,0.00,,2013-03-28 11:22:00,
2013-03-28 11:32:00,26.0,18.0,-100.00,SSW,195,4.0,4.0,73,0.00,,,0.00,,2013-03-28 11:32:00,
2013-03-28 11:42:00,26.0,19.0,-100.00,South,190,4.0,6.0,74,0.00,,,0.00,,2013-03-28 11:42:00,
2013-03-28 11:52:00,25.0,19.0,-100.00,SSW,200,3.0,5.0,76,0.00,,,0.00,,2013-03-28 11:52:00,
2013-03-28 12:02:00,25.0,19.0,-100.00,SW,220,4.0,4.0,77,0.00,,,0.00,,2013-03-28 12:02:00,
2013-03-28 12:12:00,25.0,19.0,-100.00,SSW,205,4.0,6.0,78,0.00,,,0.00,,2013-03-28 12:12:00,
2013-03-28 12:22:00,25.0,19.0,-100.00,SSW,205,4.0,5.0,76,0.00,,,0.00,,2013-03-28 12:22:00,
2013-03-28 12:32:00,26.0,19.0,-100.00,SSW,210,4.0,6.0,76,0.00,,,0.00,,2013-03-28 12:32:00,
2013-03-28 12:42:00,27.0,19.0,-100.00,SSW,210,6.0,6.0,76,0.00,,,0.00,,2013-03-28 12:42:00,
2013-03-28 12:52:00,27.0,21.0,-100.00,SSW,210,3.0,6.0,76,0.00,,,0.00,,2013-03-28 12:52:00,
2013-03-28 13:02:00,27.0,21.0,-100.00,SSW,205,4.0,5.0,77,0.00,,,0.00,,2013-03-28 13:02:00,
2013-03-28 13:12:00,27.0,21.0,-100.00,SSW,195,6.0,6.0,76,0.00,,,0.00,,2013-03-28 13:12:00,
2013-03-28 13:22:00,28.0,21.0,-100.00,South,190,5.0,6.0,76,0.00,,,0.00,,2013-03-28 13:22:00,
2013-03-28 13:32:00,28.0,21.0,-100.00,SSW,195,6.0,7.0,74,0.00,,,0.00,,2013-03-28 13:32:00,
2013-03-28 13:41:00,29.0,21.0,-100.00,SSW,205,4.0,6.0,74,0.00,,,0.00,,2013-03-28 13:41:00,
2013-03-28 13:52:00,29.0,21.0,-100.00,SW,230,5.0,6.0,73,0.00,,,0.00,,2013-03-28 13:52:00,
2013-03-28 14:02:00,30.0,21.0,-100.00,SSW,205,4.0,6.0,72,0.00,,,0.00,,2013-03-28 14:02:00,
2013-03-28 14:12:00,31.0,23.0,-100.00,SSW,205,5.0,7.0,72,0.00,,,0.00,,2013-03-28 14:12:00,
2013-03-28 14:22:00,31.0,23.0,-100.00,SSW,195,6.0,9.0,71,0.00,,,0.00,,2013-03-28 14:22:00,
2013-03-28 14:32:00,32.0,23.0,-100.00,SSW,195,6.0,7.0,70,0.00,,,0.00,,2013-03-28 14:32:00,
2013-03-28 14:42:00,32.0,23.0,-100.00,SSW,200,6.0,7.0,69,0.00,,,0.00,,2013-03-28 14:42:00,
2013-03-28 14:51:00,32.0,23.0,-100.00,South,190,6.0,8.0,69,0.00,,,0.00,,2013-03-28 14:51:00,
2013-03-28 15:02:00,32.0,23.0,-100.00,SSW,195,5.0,7.0,69,0.00,,,0.00,,2013-03-28 15:02:00,
2013-03-28 15:12:00,33.0,25.0,-100.00,SSW,210,5.0,7.0,68,0.00,,,0.00,,2013-03-28 15:12:00,
2013-03-28 15:21:00,34.0,25.0,-100.00,SW,220,5.0,6.0,69,0.00,,,0.00,,2013-03-28 15:21:00,
2013-03-28 15:32:00,34.0,25.0,-100.00,SW,220,6.0,7.0,68,0.00,,,0.00,,2013-03-28 15:32:00,
2013-03-28 15:43:00,34.0,25.0,-100.00,SW,225,7.0,9.0,66,0.00,,,0.00,,2013-03-28 15:43:00,
2013-03-28 15:52:00,34.0,23.0,-100.00,SW,215,8.0,10.0,64,0.00,,,0.00,,2013-03-28 15:52:00,
2013-03-28 16:02:00,35.0,25.0,-100.00,SSW,210,6.0,9.0,65,0.00,,,0.00,,2013-03-28 16:02:00,
2013-03-28 16:12:00,35.0,25.0,-100.00,SW,215,7.0,8.0,65,0.00,,,0.00,,2013-03-28 16:12:00,
2013-03-28 16:23:00,36.0,27.0,-100.00,SW,225,4.0,6.0,65,0.00,,,0.00,,2013-03-28 16:23:00,
2013-03-28 16:32:00,37.0,27.0,-100.00,SW,225,6.0,7.0,64,0.00,,,0.00,,2013-03-28 16:32:00,
2013-03-28 16:42:00,37.0,25.0,-100.00,SSW,210,5.0,6.0,62,0.00,,,0.00,,2013-03-28 16:42:00,
2013-03-28 16:52:00,37.0,25.0,-100.00,SW,220,7.0,8.0,61,0.00,,,0.00,,2013-03-28 16:52:00,
2013-03-28 17:02:00,38.0,27.0,-100.00,SW,220,6.0,7.0,62,0.00,,,0.00,,2013-03-28 17:02:00,
2013-03-28 17:12:00,38.0,27.0,-100.00,WSW,240,6.0,7.0,62,0.00,,,0.00,,2013-03-28 17:12:00,
2013-03-28 17:22:00,39.0,27.0,-100.00,WSW,240,6.0,7.0,61,0.00,,,0.00,,2013-03-28 17:22:00,
2013-03-28 17:32:00,38.0,27.0,-100.00,WSW,245,6.0,8.0,61,0.00,,,0.00,,2013-03-28 17:32:00,
2013-03-28 17:42:00,39.0,27.0,-100.00,SW,235,6.0,7.0,61,0.00,,,0.00,,2013-03-28 17:42:00,
2013-03-28 17:52:00,38.0,27.0,-100.00,WSW,240,6.0,8.0,61,0.00,,,0.00,,2013-03-28 17:52:00,
2013-03-28 18:02:00,39.0,27.0,-100.00,SW,235,6.0,7.0,62,0.00,,,0.00,,2013-03-28 18:02:00,
2013-03-28 18:12:00,39.0,27.0,-100.00,WSW,240,6.0,7.0,62,0.00,,,0.00,,2013-03-28 18:12:00,
2013-03-28 18:22:00,40.0,28.0,-100.00,WSW,240,7.0,8.0,61,0.00,,,0.00,,2013-03-28 18:22:00,
2013-03-28 18:32:00,40.0,28.0,-100.00,SW,225,6.0,7.0,60,0.00,,,0.00,,2013-03-28 18:32:00,
2013-03-28 18:42:00,40.0,27.0,-100.00,SW,230,7.0,8.0,59,0.00,,,0.00,,2013-03-28 18:42:00,
2013-03-28 18:52:00,41.0,28.0,-100.00,SW,230,6.0,7.0,60,0.00,,,0.00,,2013-03-28 18:52:00,
2013-03-28 19:02:00,41.0,28.0,-100.00,SW,220,6.0,7.0,59,0.00,,,0.00,,2013-03-28 19:02:00,
2013-03-28 19:12:00,40.0,27.0,-100.00,SSW,210,7.0,8.0,60,0.00,,,0.00,,2013-03-28 19:12:00,
2013-03-28 19:22:00,40.0,27.0,-100.00,SW,215,7.0,9.0,61,0.00,,,0.00,,2013-03-28 19:22:00,
2013-03-28 19:32:00,40.0,28.0,-100.00,SW,225,4.0,7.0,61,0.00,,,0.00,,2013-03-28 19:32:00,
2013-03-28 19:42:00,41.0,28.0,-100.00,SW,225,4.0,7.0,61,0.00,,,0.00,,2013-03-28 19:42:00,
2013-03-28 19:52:00,40.0,28.0,-100.00,SW,230,6.0,7.0,61,0.00,,,0.00,,2013-03-28 19:52:00,
2013-03-28 20:03:00,40.0,28.0,-100.00,SW,230,5.0,6.0,62,0.00,,,0.00,,2013-03-28 20:03:00,
2013-03-28 20:12:00,40.0,28.0,-100.00,SW,230,4.0,6.0,62,0.00,,,0.00,,2013-03-28 20:12:00,
2013-03-28 20:22:00,40.0,28.0,-100.00,SW,220,4.0,6.0,63,0.00,,,0.00,,2013-03-28 20:22:00,
2013-03-28 20:32:00,40.0,28.0,-100.00,SSW,210,6.0,7.0,63,0.00,,,0.00,,2013-03-28 20:32:00,
2013-03-28 20:42:00,40.0,28.0,-100.00,SW,215,6.0,6.0,63,0.00,,,0.00,,2013-03-28 20:42:00,
2013-03-28 20:52:00,40.0,28.0,-100.00,SW,215,5.0,6.0,63,0.00,,,0.00,,2013-03-28 20:52:00,
2013-03-28 21:02:00,40.0,28.0,-100.00,SW,220,4.0,6.0,63,0.00,,,0.00,,2013-03-28 21:02:00,
2013-03-28 21:12:00,40.0,28.0,-100.00,SSW,205,6.0,7.0,64,0.00,,,0.00,,2013-03-28 21:12:00,
2013-03-28 21:22:00,40.0,28.0,-100.00,SW,215,6.0,7.0,64,0.00,,,0.00,,2013-03-28 21:22:00,
2013-03-28 21:32:00,40.0,28.0,-100.00,SW,215,7.0,7.0,64,0.00,,,0.00,,2013-03-28 21:32:00,
2013-03-28 21:42:00,40.0,28.0,-100.00,SW,215,7.0,9.0,64,0.00,,,0.00,,2013-03-28 21:42:00,
2013-03-28 21:53:00,40.0,28.0,-100.00,SW,215,7.0,9.0,64,0.00,,,0.00,,2013-03-28 21:53:00,
2013-03-28 22:02:00,40.0,30.0,-100.00,SW,215,8.0,9.0,64,0.00,,,0.00,,2013-03-28 22:02:00,
2013-03-28 22:12:00,41.0,30.0,-100.00,SSW,210,6.0,9.0,65,0.00,,,0.00,,2013-03-28 22:12:00,
2013-03-28 22:22:00,40.0,30.0,-100.00,SSW,200,4.0,7.0,66,0.00,,,0.00,,2013-03-28 22:22:00,
2013-03-28 22:32:00,40.0,30.0,-100.00,SSW,195,6.0,7.0,67,0.00,,,0.00,,2013-03-28 22:32:00,
2013-03-28 22:42:00,39.0,30.0,-100.00,SSW,200,5.0,7.0,68,0.00,,,0.00,,2013-03-28 22:42:00,
2013-03-28 22:52:00,38.0,28.0,-100.00,SSW,195,5.0,6.0,68,0.00,,,0.00,,2013-03-28 22:52:00,
2013-03-28 23:02:00,38.0,28.0,-100.00,SSW,195,6.0,7.0,69,0.00,,,0.00,,2013-03-28 23:02:00,
2013-03-28 23:12:00,38.0,30.0,-100.00,SSW,210,4.0,7.0,70,0.00,,,0.00,,2013-03-28 23:12:00,
2013-03-28 23:22:00,39.0,30.0,-100.00,SW,225,4.0,6.0,70,0.00,,,0.00,,2013-03-28 23:22:00,
2013-03-28 23:32:00,38.0,30.0,-100.00,SSW,210,2.0,4.0,71,0.00,,,0.00,,2013-03-28 23:32:00,
2013-03-28 23:42:00,38.0,30.0,-100.00,SW,220,1.0,3.0,71,0.00,,,0.00,,2013-03-28 23:42:00,
2013-03-28 23:52:00,36.0,28.0,-100.00,SSW,205,2.0,2.0,73,0.00,,,0.00,,2013-03-28 23:52:00,